CZ-6A DEB, 61430

Orbit data source: Space-Track

CZ-6A DEB, 61430 is space debris in LEO originally from a launch on Tue, 06 Aug 2024 UTC launched from the Taiyaun Space Center, China (TSC). Debris objects in space refer to the collection of defunct objects orbiting the Earth. Examples of debris include non-operational satellites, rocket bodies, and fragments generated from explosions, collisions, or faulty payload assembly.

Loading next visibility...
Identifier
61430, 2024-140YX
Orbit
LEO
Country
Flag of CNCN / PRC
Related business
Manufacturer
SAST
Mission
Spacecraft
Bus & Motor
Unknown
Mass
Unknown
Launch date (UTC)
2024-08-06 (1 year ago)
Launch vehicle
Unknown
Launch site
Taiyaun Space Center, China (TSC)
Object type
Payload
Rocket body
Debris
Shape & HBR
Unknown shape, 0.2 m
Radar Cross Section
Small (<0.1 m²)

Expand to show TLE details & history
Last TLE update: 1 day ago

TLE from 1 day ago
0 CZ-6A DEB
1 61430U 24140YX  25312.70629902  .00000858  00000-0  44522-3 0  9994
2 61430  89.0489 302.9905 0079457 187.7610 172.2353 14.12326936 62642
Epoch: 2025-11-08T16:57Z
TLE epoch observation values (Epoch: 2025-11-08T16:57:04.235Z)
Latitude
-0.00002°
Longitude
0.59079°
Altitude
911.4 km
Speed
7.367 km/s
True Right ascension
20h 11m 57s
True Declination
0° 00' 00"
Sunlit
Object was in daylight at epoch
Visualization orbit readout
Latitude
Unknown
Longitude
Unknown
Altitude
Unknown
Speed
Unknown
Apparent Right ascension
Unknown
Apparent Declination
Unknown
Sunlit
N/A
Visualization observer readout
Local Sidereal Time
19:57:21
Azimuth
Unknown
Elevation
Unknown
Doppler factor
Unknown
Orbital elements
Apogee altitude
905.801 km
Perigee altitude
790.962 km
Semi-major axis
7,226.519 km
Eccentricity
0.00795
Inclination
89.0489°
RAAN
302.9905°
Arg. of periapsis
187.761°
True anomaly
172.35712°
Mean anomaly
172.2353°
Eccentric anomaly
172.29633°
Mean motion
3.53305 °/min
Orbital period
101.9 mins
BSTAR
0.00044522
Loading maneuver chart data...
Computing Atmospheric mass density...

Documentation

Showing up to 5 results
|